EDT,Max TemperatureF,Mean TemperatureF,Min TemperatureF,Max Dew PointF,MeanDew PointF,Min DewpointF,Max Humidity, Mean Humidity, Min Humidity, Max Sea Level PressureIn, Mean Sea Level PressureIn, Min Sea Level PressureIn, Max VisibilityMiles, Mean VisibilityMiles, Min VisibilityMiles, Max Wind SpeedMPH, Mean Wind SpeedMPH, Max Gust SpeedMPH,PrecipitationIn, CloudCover, Events, WindDirDegrees
2012-10-1,66,62,57,63,60,55,100,90,78,29.97,29.93,29.89,10,9,3,7,1,,0.00,5,,87
2012-10-2,84,74,64,77,72,63,100,88,70,29.97,29.90,29.86,10,8,0,15,3,,0.00,6,,170
2012-10-3,87,81,75,77,74,70,100,85,55,30.15,30.08,29.97,10,9,4,10,5,,0.00,3,,193
2012-10-4,84,76,68,75,66,55,100,76,37,30.20,30.15,30.11,10,9,5,12,4,21,0.00,2,,234
2012-10-5,82,72,62,66,60,52,100,76,35,30.16,30.10,30.02,10,8,1,8,1,,0.00,0,,130
2012-10-6,84,72,60,66,59,52,100,71,35,30.02,29.94,29.86,10,9,1,13,3,21,0.00,2,,244
2012-10-7,64,58,53,55,51,39,100,84,42,30.15,30.05,29.99,10,8,2,17,6,22,0.00,8,,3
2012-10-8,53,52,51,54,50,45,100,90,76,30.26,30.18,30.12,10,8,3,9,4,18,0.00,8,,4
2012-10-9,59,55,51,57,55,52,100,97,88,30.13,30.09,30.06,10,5,2,8,5,,0.00,8,,345
2012-10-10,71,63,55,57,53,46,100,78,41,30.06,30.01,29.93,10,7,1,13,3,,0.00,4,,263
2012-10-11,66,55,44,52,42,30,100,68,26,30.31,30.23,30.07,10,10,10,10,3,17,0.00,0,,359
2012-10-12,71,58,44,48,43,34,100,66,25,30.39,30.22,30.17,10,10,7,10,2,,0.00,0,,1
2012-10-13,68,54,39,46,40,36,93,65,35,30.49,30.42,30.37,10,10,10,10,2,,0.00,0,,71
2012-10-14,78,61,44,57,50,43,100,71,34,30.35,30.20,30.03,10,10,10,12,2,17,0.00,1,,196
2012-10-15,75,68,60,64,60,57,100,80,53,30.03,29.85,29.70,10,10,3,13,5,18,0.00,3,,213
2012-10-16,68,57,46,57,47,39,100,75,37,29.95,29.89,29.80,10,10,5,10,3,9,0.00,0,,343
2012-10-17,71,58,44,54,47,43,100,74,35,30.03,29.98,29.93,10,10,10,7,1,,0.00,0,,191
2012-10-18,78,61,44,63,53,45,100,73,44,29.98,29.90,29.81,10,9,0,9,2,,0.00,3,,144
2012-10-19,80,71,53,68,61,45,100,78,39,29.79,29.74,29.67,10,8,2,13,3,16,0.00,4,,181
2012-10-20,73,62,50,48,43,34,82,57,23,29.93,29.81,29.75,10,10,10,9,3,,0.00,0,,228
2012-10-21,68,55,42,46,41,32,93,64,28,30.14,30.07,29.93,10,10,10,9,2,18,0.00,0,,339
2012-10-22,73,56,39,50,42,36,100,69,25,30.23,30.18,30.14,10,10,10,6,1,,0.00,0,,333
2012-10-23,80,62,44,54,47,39,100,67,23,30.19,30.14,30.09,10,10,2,8,1,,0.00,0,,215
2012-10-24,82,68,53,61,53,48,100,70,30,30.18,30.13,30.07,10,10,7,9,4,,0.00,0,,221
2012-10-25,82,66,51,64,56,50,100,77,37,30.18,30.15,30.12,10,9,5,10,2,,0.00,1,,68
2012-10-26,73,66,60,66,63,59,100,87,65,30.13,30.06,29.96,10,7,0,13,4,18,0.00,7,,38
2012-10-27,71,66,62,61,60,57,94,83,60,29.95,29.81,29.70,10,9,5,18,10,29,0.00,5,,39
2012-10-28,62,58,53,59,56,52,100,93,88,29.69,29.55,29.44,10,5,4,15,11,28,0.00,8,,358
2012-10-29,55,50,44,54,49,39,100,90,81,29.44,29.29,29.13,10,6,2,24,12,33,0.00,8,,298
2012-10-30,46,44,42,39,38,34,87,76,62,29.55,29.38,29.14,10,9,5,16,11,28,0.00,7,,221
2012-10-31,55,47,39,43,37,34,87,66,44,29.73,29.64,29.55,10,10,10,13,7,20,0.00,3,,232